SCP
0 0 0 0 0 0 0 0 0 0 0 0 0 1 1 1 1 1 1 1 1 1 1 1 1 1 1 1 1 1 1 1 1 1 1 2 2 1 1 1 1 0 0 0
0 0 0 0 0 0 0 0 0 0 0 0 0 1 1 1 1 1 1 1 1 1 1 1 1 1 1 1 1 1 1 1 1 1 1 2 2 2 1 1 1 0 0 0
0 0 0 0 0 0 0 0 0 0 0 0 0 1 1 1 1 1 1 1 1 0 0 1 1 1 1 1 1 1 1 1 2 2 2 2 2 2 2 1 1 0 0 0
0 0 0 0 0 0 0 0 0 0 0 0 0 0 1 1 1 1 1 1 1 0 0 0 1 1 1 1 0 0 1 1 1 1 1 1 2 2 2 1 1 0 0 0
0 0 0 0 0 0 0 0 0 0 0 0 0 0 1 1 1 1 1 1 1 0 0 0 0 1 1 1 0 0 0 1 1 1 1 1 1 1 1 1 0 0 0 0
0 0 0 0 0 0 0 0 0 0 0 0 0 0 1 1 1 1 1 1 1 1 0 0 0 1 1 0 0 0 0 0 0 0 0 0 0 0 0 0 0 0 0 0
0 0 0 0 0 0 0 0 0 0 0 0 0 0 1 1 1 1 1 1 1 1 1 1 1 1 1 0 0 0 0 0 0 0 0 0 0 0 0 0 0 0 0 0
0 0 0 0 0 0 0 0 0 0 0 0 0 0 0 1 1 1 1 1 1 1 1 1 1 1 1 0 0 0 0 0 0 0 0 0 0 0 0 0 0 0 0 0
0 0 0 0 0 0 0 0 0 0 0 0 0 0 1 1 1 1 1 1 1 1 0 1 1 1 1 0 0 0 0 0 0 0 0 0 0 0 0 0 0 0 0 0
0 0 0 0 0 0 0 0 0 0 0 0 0 1 1 1 1 1 1 1 1 0 0 0 1 1 1 0 0 0 0 0 0 0 0 0 0 0 0 0 0 0 0 0
0 0 0 0 0 1 1 0 0 0 0 0 0 1 1 1 1 1 1 1 1 1 0 0 1 1 1 0 0 0 0 0 0 0 0 0 0 0 0 0 0 0 0 0
0 0 0 0 0 0 0 0 0 0 0 0 0 0 1 1 1 1 1 1 1 1 0 0 1 1 1 1 0 0 0 0 0 0 0 0 0 0 0 0 0 0 0 0
0 0 0 0 0 0 0 0 0 0 0 0 0 0 1 1 1 1 1 1 1 1 0 0 0 1 1 1 0 0 0 1 0 0 0 0 0 0 0 0 0 0 0 0
0 0 0 0 0 0 0 0 0 0 0 0 0 1 1 1 1 1 1 1 1 1 0 0 0 0 0 0 0 0 1 1 1 0 0 1 1 1 0 0 0 0 0 0
0 0 0 0 0 0 0 0 0 0 0 0 0 1 1 1 1 1 1 1 1 0 0 0 0 0 0 0 0 0 0 0 0 0 0 1 1 1 0 0 0 0 0 0
0 0 0 0 0 0 0 0 0 0 0 0 1 1 1 1 1 1 1 1 1 0 0 0 0 0 0 0 0 0 0 0 0 0 0 0 0 0 0 0 0 0 0 0
0 0 0 0 0 0 0 0 0 0 0 0 1 1 1 1 1 1 1 0 0 0 0 0 0 0 0 0 0 0 0 0 0 0 0 0 0 0 0 0 0 0 0 0
0 0 0 0 0 0 0 0 0 0 0 0 0 1 1 1 1 0 0 0 0 0 0 0 0 0 0 0 0 0 0 0 0 0 0 0 0 0 0 0 0 0 0 0
0 0 0 0 0 0 0 0 0 0 0 0 0 0 0 0 0 0 0 0 0 0 0 0 0 0 0 0 0 0 0 0 0 0 0 0 0 0 0 0 0 0 0 0
0 0 0 0 0 0 0 0 0 0 0 0 0 0 0 0 0 0 0 0 0 0 0 0 0 0 0 0 0 0 0 0 0 0 0 0 0 0 0 0 0 0 0 0
0 0 0 0 0 0 0 0 0 0 0 0 0 0 0 0 0 0 0 0 0 0 0 0 0 0 0 0 0 0 0 0 0 0 0 0 0 0 0 0 0 0 0 0
0 0 0 0 0 0 0 0 0 0 0 0 0 0 0 0 0 0 0 0 0 0 0 0 0 0 0 0 0 0 0 0 0 0 0 0 0 0 0 0 0 0 0 0
0 0 0 0 0 0 0 0 0 0 0 0 0 0 0 0 0 0 0 0 0 0 0 0 0 0 0 0 0 0 0 0 0 0 0 0 0 0 0 0 0 0 0 0
0 0 0 0 0 0 0 0 0 0 0 0 0 0 0 0 0 0 0 0 0 0 0 0 0 0 0 0 0 0 0 0 0 0 0 0 0 0 0 0 0 0 0 0
0 0 0 0 0 0 0 0 0 0 0 0 0 0 0 0 0 0 0 0 0 0 0 0 0 0 0 0 0 0 0 0 0 0 0 0 0 0 0 0 0 0 0 0
0 0 0 0 0 0 0 0 0 0 0 0 0 0 0 0 0 0 0 0 0 0 0 0 0 0 0 0 0 0 0 0 0 0 0 0 0 0 0 0 0 0 1 1
0 0 0 0 0 0 0 0 0 0 0 0 0 0 0 0 0 0 0 0 0 0 0 0 0 0 0 0 0 0 0 0 0 0 0 0 0 0 0 0 0 1 1 1
Wind_Speed
7 5 5 7 7 7 8 7 6 4 3 4 4 5 7 7 8 9 9 9 9 9 8 8 8 7 7 7 7 7 6 6 5 5 5 4 4 4 3 3 3 4 4 4
8 8 8 8 8 8 9 8 8 5 4 3 3 3 6 7 8 9 9 9 9 10 9 9 8 7 6 7 8 7 7 6 5 6 5 4 4 4 4 3 3 3 4 4
8 8 8 9 8 8 8 8 6 5 3 4 5 5 6 7 8 8 9 9 9 9 9 9 9 8 7 7 8 7 7 6 6 6 5 4 4 4 4 3 3 3 4 4
7 8 9 5 4 5 6 6 6 4 2 4 4 5 5 6 8 7 8 9 9 8 8 8 9 8 7 7 8 8 7 7 6 6 5 5 4 4 4 3 3 3 3 4
6 7 7 5 3 4 5 5 4 4 3 3 4 4 4 5 6 7 8 7 7 8 8 8 9 9 8 8 7 7 7 7 7 7 6 5 5 4 4 4 3 4 4 3
6 7 8 3 1 1 3 4 3 3 3 3 4 3 3 5 6 5 6 6 7 7 8 8 8 9 8 8 7 7 7 7 7 7 6 6 5 4 3 4 4 4 4 3
9 9 6 2 3 3 4 1 2 2 3 3 3 2 5 7 6 6 5 6 7 7 6 7 8 9 8 8 7 7 7 7 7 7 6 6 5 4 4 4 3 4 4 3
8 8 4 2 3 2 1 2 2 2 2 2 4 5 6 6 6 6 6 6 6 6 5 6 8 9 8 7 7 7 7 7 7 7 6 6 5 4 4 4 4 3 3 2
4 2 1 2 1 1 2 3 3 3 3 4 5 5 5 6 6 6 6 6 5 5 6 5 6 7 8 7 8 8 7 7 7 6 5 6 6 5 4 4 3 3 3 3
4 3 2 1 1 2 2 3 3 3 3 4 4 4 5 5 6 6 6 6 6 6 6 5 5 6 7 8 8 9 8 7 7 6 6 5 4 4 4 3 3 3 3 3
4 2 2 2 2 1 2 2 3 3 3 3 4 4 4 5 5 6 5 5 5 6 6 6 6 6 7 8 8 8 8 7 6 6 6 5 4 3 3 3 4 4 3 3
3 2 2 1 1 1 1 2 2 2 2 2 3 4 4 4 5 5 6 5 5 5 6 6 7 7 6 7 8 8 7 6 5 5 5 5 5 3 4 3 4 4 4 4
2 2 2 1 2 1 1 1 1 1 2 2 3 3 4 4 4 5 6 6 6 6 6 6 7 7 6 6 7 7 7 6 5 5 5 5 5 5 4 2 4 4 4 5
1 1 2 2 2 1 1 1 1 1 2 3 3 3 3 4 4 5 6 6 6 6 6 6 6 7 7 6 6 6 6 6 5 4 5 5 5 5 5 5 3 1 1 4
3 2 2 1 2 1 1 1 2 1 2 3 4 4 4 4 4 4 4 5 6 6 6 6 6 6 7 7 6 6 5 4 4 4 4 4 4 4 4 4 4 4 3 2
4 3 3 4 4 3 3 3 2 2 2 2 3 4 4 4 3 3 4 5 6 6 6 6 6 6 6 6 6 5 4 6 5 4 4 4 4 4 4 4 4 4 4 4
4 4 4 4 4 4 3 3 2 2 2 2 3 4 4 4 4 4 4 4 4 4 5 5 5 5 6 6 6 4 4 5 6 4 4 4 3 4 4 4 4 3 3 5
4 4 5 4 3 3 3 2 2 2 2 2 3 4 4 5 5 5 4 5 5 4 4 5 5 5 5 6 5 4 4 4 4 3 3 3 3 3 3 3 3 4 3 4
4 4 4 3 2 2 2 2 3 3 3 3 4 4 4 4 4 5 5 5 5 5 5 5 7 6 5 6 6 4 4 4 4 3 3 4 3 3 3 3 3 3 3 3
4 4 4 3 3 3 2 2 3 3 3 3 4 4 3 4 4 4 5 4 3 3 5 6 6 5 5 5 6 3 4 4 4 3 3 3 3 3 3 3 3 3 3 3
4 3 3 3 2 2 2 3 3 4 4 4 4 4 4 4 4 4 4 3 3 5 5 7 4 4 4 5 5 3 3 3 3 4 4 3 3 3 3 3 3 3 3 3
4 4 3 3 2 2 2 3 3 4 4 3 4 4 4 4 4 4 3 3 4 6 5 4 3 5 6 6 3 3 3 3 3 3 3 3 3 3 3 3 3 3 3 3
3 3 3 3 3 3 3 3 4 4 4 4 4 4 4 3 3 4 3 3 4 6 4 3 5 8 8 4 3 3 3 3 3 3 3 3 3 3 3 3 3 2 2 2
2 3 3 3 3 3 3 3 3 3 3 3 3 3 3 3 3 2 3 5 6 6 4 5 8 8 7 3 3 3 3 3 3 2 3 2 2 2 2 2 2 2 2 3
2 2 2 3 3 3 3 3 3 3 3 2 3 3 2 2 3 3 4 5 7 6 4 6 8 7 4 3 3 3 3 3 3 3 3 2 2 2 2 2 2 2 2 2
2 1 1 1 1 2 2 3 3 2 2 2 2 2 2 3 4 3 4 5 6 5 4 4 4 5 3 3 3 3 3 3 3 3 2 2 3 2 2 2 2 2 2 2
1 2 2 2 1 2 2 2 2 2 2 2 3 2 3 3 3 3 4 4 4 4 3 3 3 3 3 3 3 3 3 3 3 3 2 2 2 2 2 2 2 2 2 2
Wind_Direction
242 252 240 244 241 234 241 247 255 241 218 204 184 171 166 163 162 160 157 158 158 158 159 162 164 167 167 155 149 148 146 145 147 142 135 136 135 131 116 106 107 108 105 97
254 246 244 249 240 235 240 242 246 244 238 191 166 164 162 162 161 162 164 164 163 163 162 167 167 164 158 155 153 150 151 149 141 139 136 136 135 125 115 110 110 111 111 103
262 249 248 246 236 233 233 234 235 240 217 168 167 167 169 165 166 167 166 164 165 168 168 169 167 167 165 158 153 154 150 140 140 140 134 139 135 122 125 127 116 108 107 108
259 257 252 246 229 224 231 235 234 236 208 176 169 164 169 163 164 170 167 164 167 170 170 169 165 165 163 158 157 157 149 143 141 139 140 140 133 135 138 128 121 116 107 110
259 260 262 246 233 225 225 235 226 213 205 168 148 154 165 156 154 162 162 161 163 166 165 166 163 162 160 158 155 152 146 150 150 147 146 144 144 150 145 134 128 127 120 119
248 251 256 245 195 232 234 232 199 195 184 162 165 179 155 135 130 132 139 148 154 157 158 160 160 157 156 157 157 155 151 151 148 146 148 151 150 148 140 136 140 134 133 139
241 247 251 240 172 199 225 195 131 168 157 161 160 123 128 131 131 128 132 140 143 148 151 156 155 153 157 156 159 153 145 141 142 148 152 148 144 144 139 140 143 144 148 152
233 239 232 147 183 226 348 73 103 109 118 118 106 106 114 122 126 132 133 133 135 139 140 144 148 153 156 153 148 141 142 144 147 154 155 147 143 145 146 146 151 155 148 145
236 235 124 148 118 29 8 48 60 68 73 91 101 113 125 130 130 129 132 133 131 135 136 138 144 149 147 145 143 142 145 148 149 150 146 146 151 154 156 157 159 163 156 155
237 214 191 152 93 40 25 42 48 62 88 103 108 117 126 130 131 131 133 138 139 141 144 147 145 141 142 141 142 144 148 151 153 153 147 142 143 148 151 162 165 167 166 163
258 241 221 175 132 101 66 62 66 68 84 109 113 125 134 136 138 138 139 143 148 153 155 152 142 139 139 144 148 150 150 153 153 147 145 142 137 141 156 164 172 171 172 167
240 247 265 228 116 80 76 75 84 91 96 120 130 140 140 140 140 142 145 146 149 155 155 153 147 146 146 149 155 157 157 159 157 152 149 147 140 115 71 113 132 139 143 150
287 309 307 302 292 256 218 122 110 129 143 139 137 140 140 137 142 144 149 154 159 158 156 154 150 152 154 156 161 162 159 158 156 158 157 158 155 152 143 88 81 105 133 139
285 288 271 271 261 244 160 146 134 151 161 154 148 139 137 140 144 152 159 159 153 151 153 154 153 157 158 159 159 159 154 154 155 157 161 164 167 166 163 163 163 150 148 162
253 252 252 272 257 218 176 174 191 188 163 154 146 146 150 150 153 157 151 145 144 149 154 156 158 159 155 158 158 157 151 152 155 155 158 165 167 166 166 166 161 157 148 151
230 218 216 225 217 209 207 197 197 199 187 163 155 154 156 148 143 140 141 145 153 159 161 158 156 152 150 153 152 151 153 159 157 156 161 167 171 170 168 166 167 168 166 161
222 209 215 214 209 212 208 195 196 200 187 172 151 144 147 144 141 142 143 143 144 147 149 146 142 138 144 151 150 149 150 157 160 163 167 169 167 169 169 170 171 170 168 165
231 221 213 204 201 210 210 185 179 179 175 160 151 156 162 159 157 154 147 140 134 133 136 138 139 141 147 150 149 147 152 160 168 169 160 156 161 169 169 170 171 169 164 164
232 224 214 200 206 213 198 178 165 165 166 166 167 168 165 156 151 150 147 149 152 154 155 146 148 150 145 145 146 149 157 161 162 161 156 158 170 175 174 174 171 170 167 161
231 218 201 197 202 203 191 169 164 164 170 175 167 157 154 152 149 149 151 153 154 150 144 144 153 153 147 145 145 153 158 162 165 166 165 169 178 179 174 171 170 172 173 172
206 194 184 191 189 188 187 179 172 170 175 176 165 161 161 157 155 151 148 150 141 134 140 148 155 150 147 144 150 157 162 165 168 170 172 175 179 178 176 175 176 180 181 182
188 182 177 173 178 184 183 178 169 165 164 165 158 158 157 159 155 150 146 146 143 141 144 156 152 142 143 141 153 159 163 168 170 170 173 177 178 179 181 180 182 182 184 187
173 170 171 179 184 183 180 171 165 161 166 171 169 168 166 160 157 157 159 147 141 146 148 149 142 140 144 148 155 161 168 175 176 175 174 178 180 178 176 176 178 181 182 179
167 174 180 175 171 171 170 158 154 160 162 168 169 163 157 149 149 145 134 138 140 142 139 140 143 150 155 160 157 161 170 173 169 165 162 164 167 167 165 165 170 179 178 172
166 170 165 158 162 164 160 152 153 155 158 164 160 149 145 140 137 130 128 134 138 139 135 146 151 157 162 159 158 161 165 165 161 158 158 156 157 159 156 155 164 169 168 164
145 148 150 157 152 147 150 151 155 157 157 149 141 133 124 114 113 116 122 133 137 139 140 147 156 162 165 157 155 154 152 152 154 152 150 147 145 144 148 154 153 148 154 156
125 122 120 124 124 128 134 140 148 154 150 140 130 121 117 117 119 122 125 133 140 142 143 146 152 155 147 144 146 144 143 144 143 141 142 143 143 147 149 147 142 142 141 139